STARLINK-3897 (52537 NORAD) Tracking and Keplerian Element Data

This shows tracking and keplerian element data for the satellite.

Feedback or suggestion? Click here.




ElementValue
Catalog52537
NameSTARLINK-3897
Epoch Orbit970
Epoch Day192.91667824
Epoch Year2022
RAAN10.1467
Inclination53.2174
Eccentricity0.0001745
Argument of Perigee40.4159
Mean Anonmoly336.803
Mean Motion15.11626396
Decay Rate-0.00719722
L11 52537U 22051E 22192.91667824 -.00719722 00000+0 -44974-1 0 9999
L22 52537 53.2174 10.1467 0001745 40.4159 336.8030 15.11626396 9704

Live tracking and technical data element details for STARLINK-3897 (NORAD 52537). STARLINK-3897 can be tracked NOW for your location showing map with azimuth and elevation plus other details from your city location.

Track the satellite on the map from your city or location and see movement details for azimuth, elevation, latitude, longitude, range, height, and movement on the map or in text.







IsCatalogInMostPopularTable: catalog: 52537, numindb: 7
Update: records affected: 1



GetName: 52537 STARLINK-3897

Hit Count: updated at: Sun, 14 Aug 2022 01:11:03 GMT